Flag for United Kingdom Weather past 2 weeks in Southend-on-Sea, England, United Kingdom

Now
52 °F

Scattered showers. Passing clouds.


Feels Like: 45 °F
Forecast: 44 / 54 °F
Wind: 23 mph from Northwest

Location: Southend Airport-On-Sea

Current Time: Oct 21, 2014 at 5:54:05 PM

Latest Report: Oct 21, 2014 at 5:20 PM


Visibility: N/A

Pressure: 29.80 "Hg

Humidity: 58%

Dew point: 37 °F

Location of Southend-on-SeaLocation

Historic Weather in Southend-on-Sea — Graph

°F

Southend-on-Sea temperature yesterday

Maximum temperature yesterday: 63 °F (at 1:50 PM)
Minimum temperature yesterday: 55 °F (at 5:50 AM)
Average temperature yesterday: 58 °F

Past Weeks' High & Low Weather Summary

 TemperatureHumidityPressure
High70 °F (Oct 18, 11:50 AM)94% (Oct 6, 7:50 PM)30.04 "Hg (Oct 6, 7:50 PM)
Low41 °F (Oct 12, 4:50 AM)39% (Oct 14, 11:50 AM)29.33 "Hg (Oct 7, 7:50 AM)
Average58 °F81%29.70 "Hg
* Reported Oct 6 4:20 PM — Oct 21 4:20 PM, Southend-on-Sea, Weather by CustomWeather, © 2014

Note: Actual official high and low records may vary slightly from our data, if they occured in-between our weather recording intervals... More about our weather records

Advertising

Southend-on-Sea weather history for previous 24 hours

 ConditionsComfort  
Time TempWeatherWind HumidityBarometerVisibility
4:20 PM
Oct 21
54 °FScattered showers. Passing clouds.14 mph58%29.74 "HgN/A
3:50 PM54 °FScattered showers. Scattered clouds.15 mph67%29.74 "HgN/A
3:20 PM54 °FScattered showers. Scattered clouds.16 mph63%29.71 "HgN/A
2:50 PM55 °FScattered showers. Scattered clouds.26 mph51%29.71 "HgN/A
2:20 PM55 °FPassing clouds.23 mph55%29.68 "HgN/A
1:50 PM55 °FScattered showers. Passing clouds.26 mph55%29.65 "HgN/A
1:20 PM57 °FPassing clouds.24 mph51%29.65 "HgN/A
12:50 PM55 °FPassing clouds.22 mph55%29.62 "HgN/A
12:20 PM55 °FPassing clouds.23 mph55%29.62 "HgN/A
11:50 AM55 °FPassing clouds.28 mph59%29.59 "HgN/A
11:20 AM55 °FPassing clouds.23 mph63%29.59 "HgN/A
10:50 AM54 °FPassing clouds.23 mph77%29.56 "HgN/A
10:20 AM61 °FScattered showers. Scattered clouds.23 mph68%29.53 "HgN/A
9:50 AM61 °FScattered clouds.21 mph72%29.53 "HgN/A
9:20 AM59 °FScattered clouds.18 mph77%29.53 "HgN/A
8:50 AM59 °FSprinkles. Scattered clouds.18 mph82%29.53 "HgN/A
8:20 AM57 °FSprinkles. Passing clouds.21 mph88%29.53 "HgN/A
7:50 AM57 °FScattered showers. Passing clouds.23 mph82%29.53 "HgN/A
7:20 AM57 °FPassing clouds.20 mph82%29.56 "HgN/A
6:50 AM57 °FPassing clouds.18 mph82%29.56 "HgN/A
6:20 AM55 °FLight rain. Passing clouds.18 mph88%29.59 "HgN/A
5:50 AM57 °FScattered showers. Passing clouds.21 mph82%29.62 "HgN/A
5:20 AM57 °FLight rain. Passing clouds.15 mph82%29.65 "HgN/A
4:50 AM57 °FPassing clouds.15 mph82%29.68 "HgN/A
3:50 AM57 °FPassing clouds.20 mph77%29.71 "HgN/A
2:50 AM57 °FPassing clouds.13 mph82%29.74 "HgN/A
1:50 AM55 °FPassing clouds.15 mph82%29.80 "HgN/A
12:50 AM57 °FPassing clouds.15 mph77%29.83 "HgN/A
11:50 PM
Oct 20
55 °FPassing clouds.13 mph82%29.86 "HgN/A
11:20 PM55 °FPassing clouds.13 mph82%29.86 "HgN/A
10:50 PM55 °FPassing clouds.13 mph82%29.89 "HgN/A
10:20 PM57 °FPassing clouds.13 mph77%29.89 "HgN/A
9:50 PM57 °FPassing clouds.13 mph77%29.89 "HgN/A
9:20 PM55 °FPassing clouds.14 mph82%29.92 "HgN/A
8:50 PM55 °FPassing clouds.12 mph82%29.92 "HgN/A
8:20 PM55 °FClear.13 mph82%29.92 "Hg10 mi
7:50 PM55 °FPassing clouds.10 mph82%29.92 "HgN/A
7:20 PM55 °FPassing clouds.7 mph77%29.95 "HgN/A
6:50 PM57 °FPassing clouds.9 mph72%29.95 "HgN/A
6:20 PM61 °FScattered clouds.14 mph59%29.95 "HgN/A
5:50 PM59 °FScattered showers. Passing clouds.12 mph63%29.95 "HgN/A
5:20 PM61 °FPassing clouds.12 mph63%29.95 "HgN/A
Weather by CustomWeather, © 2014

See weather overviewHow to use our weather pages